Location: Asheville, NC
(35.6000°N, 82.5500°W)
Time: 16:26:11
(UTC-05:00)

XW-2B - Visible Passes

Search period start: 18 January 2018 00:00
Search period end: 28 January 2018 00:00
Orbit: 511 x 530 km, 97.5° (Epoch: 18 January)

Date Brightness Start Highest point End Pass type
(mag) Time Alt. Az. Time Alt. Az. Time Alt. Az.
18 Jan ? 06:10:42 10° NNE 06:14:13 38° E 06:17:41 10° SSE visible
18 Jan ? 18:22:25 10° SSW 18:25:57 35° W 18:29:30 10° NNW visible
19 Jan ? 05:57:44 10° NE 06:00:54 25° E 06:04:01 10° SSE visible
19 Jan ? 18:08:54 10° S 18:12:39 54° W 18:16:25 10° NNW visible
20 Jan ? 05:45:00 10° NE 05:47:33 17° E 05:50:04 10° SE visible
21 Jan ? 05:32:47 10° ENE 05:34:10 12° E 05:35:32 10° ESE visible
21 Jan ? 07:05:01 10° N 07:08:27 35° WNW 07:11:51 10° SW visible
22 Jan ? 06:51:33 10° N 06:55:13 54° WNW 06:58:51 10° SSW visible
22 Jan ? 19:06:17 10° WSW 19:07:12 11° W 19:08:06 10° WNW visible
23 Jan ? 06:38:13 10° N 06:41:58 85° W 06:45:41 10° SSW visible
23 Jan ? 18:51:26 10° SW 18:53:49 16° W 18:56:13 10° NW visible
24 Jan ? 06:24:58 10° NNE 06:28:41 62° E 06:32:22 10° S visible
24 Jan ? 18:37:23 10° SSW 18:40:28 23° W 18:43:33 10° NW visible
25 Jan ? 06:11:52 10° NNE 06:15:24 39° E 06:18:53 10° S visible
25 Jan ? 18:23:39 10° SSW 18:27:08 34° W 18:30:38 10° NNW visible
26 Jan ? 05:58:52 10° NE 06:02:03 26° E 06:05:13 10° SSE visible
27 Jan ? 05:46:05 10° NE 05:48:42 18° E 05:51:18 10° SE visible
